Regional Weather Roundup
Issued by NWS Newport/Morehead, NC

Current Version | Previous Version | Text Only | Print | Product List | Glossary On
Versions: 1 2 3 4 5 6 7 8 9 10 11 12 13 14 15 16 17 18 19 20 21 22 23 24 25 26 27 28 29 30 31 32 33 34 35 36 37 38 39 40 41 42 43 44 45 46 47 48 49 50
000
ASUS42 KMHX 011424
RWRMHX
WEATHER ROUNDUP FOR EASTERN NORTH CAROLINA
NATIONAL WEATHER SERVICE NEWPORT/MOREHEAD CITY NC
1000 AM EDT WED APR 01 2015

NOTE: "FAIR" INDICATES FEW OR NO CLOUDS BELOW 12,000 FEET
WITH NO SIGNIFICANT WEATHER AND/OR OBSTRUCTIONS TO VISIBILITY

NCZ015>017-031-032-045>047-102-103-011500-
NORTH COAST

CITY           SKY/WX    TMP DP  RH WIND       PRES   REMARKS
EDENTON        SUNNY     48  32  53 NE13      30.11R
ELIZABETH CITY SUNNY     48  34  58 N15G23    30.09R
KITTY HAWK     SUNNY     44  32  62 N13G23    30.08R
MANTEO         SUNNY     45  31  57 N18G25    30.11R

$$

NCZ045>047-081-094-103-104-011500-
CENTRAL COAST

CITY           SKY/WX    TMP DP  RH WIND       PRES   REMARKS
FRISCO         SUNNY     46  35  65 N10G31    30.07R
SWANQUARTER      N/A     50 N/A N/A N7G16     30.06R

$$

NCZ095-097-098-100-101-011500-
SOUTHERN COAST

CITY           SKY/WX    TMP DP  RH WIND       PRES   REMARKS
BEAUFORT       MOSUNNY   51  36  56 MISG      30.08R
CEDAR ISLAND     N/A     50 N/A N/A N9G15     30.15R
JACKSONVILLE   MOSUNNY   56  37  49 NE17      30.07R
PINEY ISLAND   SUNNY    N/A N/A N/A N14       30.09R
WILMINGTON     PTSUNNY   57  42  57 NE14      30.07R


$$

NCZ011>013-027>030-043-044-078>080-089-090>093-098-011500-
COASTAL PLAIN

CITY           SKY/WX    TMP DP  RH WIND       PRES   REMARKS
AHOSKIE        SUNNY     47  27  47 N18       30.12R
CLINTON        SUNNY     56  39  51 NE10G16   30.10R
ELIZABETHTOWN  MOSUNNY   58  43  56 NE6       30.06R
GOLDSBORO      SUNNY     54  32  43 N16       30.07R
GREENVILLE     SUNNY     52  32  46 N20       30.12R
HAVELOCK       MOSUNNY   53  33  46 NE17G26   30.09R
KENANSVILLE    SUNNY     56  39  52 NE5       30.11R
KINSTON        SUNNY     54  34  47 NE14      30.10R
NEW BERN       SUNNY     52  36  54 NE14      30.10R
RICHLANDS      MOSUNNY   55  37  50 NE15G22   30.10R
ROCKY MOUNT    SUNNY     51  30  44 NE13      30.11R
WASHINGTON     SUNNY     50  32  50 N14G21    30.10R
WHITEVILLE     CLOUDY    58  43  57 NE12      30.06R

$$

AMZ130-135-150-152-154-156-158-170-250-252-270-ANZ085-086-088-633-658-670-011500-
MARINE OBSERVATIONS

STATION/POSITION TIME  TEMP    WIND        PRES    WAVE   SWELL
                       AIR SEA DIR/SP/G            HT/PER HT/PER
                 (UTC) (F)     (DEG/KT/KT) (MB)    (FT/S) (FT/S)
CHESAPEAKE LIGHT 1400   42     360/ 20/ 21 1019.5
64 E VA BEACH    1350   43 49  350/ 23/ 29 1016.8    7/ 7   2/12
DUCK             1400   42 42   10/ 19/ 27 1017.8
2 E DUCK         1311      42                N/A     5/ 5
10 NE DUCK       NOT AVBL
OREGON INLET     1400   43 53  350/ 17/ 23 1018.7
HATTERAS CG      1400   45 56   20/ 21/ 25 1018.9
CAPE LOOKOUT     1400   51      30/ 16/ 19 1018.2
BEAUFORT LAB     1400   51 54   30/ 10/ 17 1017.7
27 SE WRIGHTSVLE 1400   53 63   50/ 21/ 25 1019.4
5 SE WRIGHTSVLE  1400   55 56   70/ 17/ 21 1018.2
225 S CAPE HAT   1350   69 69  230/ 16/ 19 1015.4    7/ 7
41 SE CHARLESTON 1350   66 68  280/ 16/ 17 1015.6    4/ 6   2/ 9

$$


USA.gov is the U.S. government's official web portal to all federal, state and local government web resources and services.